Time,TemperatureF,DewpointF,PressureIn,WindDirection,WindDirectionDegrees,WindSpeedMPH,WindSpeedGustMPH,Humidity,HourlyPrecipIn,Conditions,Clouds,dailyrainin,SoftwareType,DateUTC
2013-10-27 00:00:00,54.4,32.3,30.11,NW,306,0.0,2.0,43,0.00,,,0.00,Wunderground v.1.13,2013-10-27 04:00:00,
2013-10-27 00:10:00,54.3,31.7,30.11,WSW,248,0.0,2.0,42,0.00,,,0.00,Wunderground v.1.13,2013-10-27 04:10:00,
2013-10-27 00:20:00,54.0,32.6,30.11,WNW,290,0.0,2.0,44,0.00,,,0.00,Wunderground v.1.13,2013-10-27 04:20:00,
2013-10-27 00:30:00,53.8,32.4,30.11,SSW,213,1.0,1.0,44,0.00,,,0.00,Wunderground v.1.13,2013-10-27 04:30:00,
2013-10-27 00:40:00,53.5,32.1,30.11,WSW,255,0.0,2.0,44,0.00,,,0.00,Wunderground v.1.13,2013-10-27 04:40:00,
2013-10-27 00:50:00,53.5,32.1,30.11,NNW,327,0.0,2.0,44,0.00,,,0.00,Wunderground v.1.13,2013-10-27 04:50:00,
2013-10-27 01:00:00,53.4,32.0,30.11,NW,318,0.0,2.0,44,0.00,,,0.00,Wunderground v.1.13,2013-10-27 05:00:00,
2013-10-27 01:10:00,53.4,32.0,30.11,WNW,288,0.0,2.0,44,0.00,,,0.00,Wunderground v.1.13,2013-10-27 05:10:00,
2013-10-27 01:20:00,53.2,32.4,30.11,WNW,289,0.0,2.0,45,0.00,,,0.00,Wunderground v.1.13,2013-10-27 05:20:00,
2013-10-27 01:30:00,53.1,32.3,30.11,WNW,290,0.0,2.0,45,0.00,,,0.00,Wunderground v.1.13,2013-10-27 05:30:00,
2013-10-27 01:40:00,53.0,32.2,30.11,WNW,293,0.0,2.0,45,0.00,,,0.00,Wunderground v.1.13,2013-10-27 05:40:00,
2013-10-27 01:50:00,52.8,32.6,30.11,WNW,291,0.0,2.0,46,0.00,,,0.00,Wunderground v.1.13,2013-10-27 05:50:00,
2013-10-27 02:00:00,52.8,32.6,30.10,West,274,0.0,2.0,46,0.00,,,0.00,Wunderground v.1.13,2013-10-27 06:00:00,
2013-10-27 02:10:00,52.7,33.5,30.09,WNW,283,0.0,2.0,48,0.00,,,0.00,Wunderground v.1.13,2013-10-27 06:10:00,
2013-10-27 02:20:00,52.4,34.3,30.09,WNW,283,0.0,2.0,50,0.00,,,0.00,Wunderground v.1.13,2013-10-27 06:20:00,
2013-10-27 02:30:00,52.2,33.6,30.09,WNW,283,0.0,2.0,49,0.00,,,0.00,Wunderground v.1.13,2013-10-27 06:30:00,
2013-10-27 02:40:00,52.1,35.5,30.08,WNW,283,0.0,2.0,53,0.00,,,0.00,Wunderground v.1.13,2013-10-27 06:40:00,
2013-10-27 02:50:00,51.9,34.3,30.08,WNW,283,0.0,2.0,51,0.00,,,0.00,Wunderground v.1.13,2013-10-27 06:50:00,
2013-10-27 03:00:00,51.8,36.1,30.07,WNW,283,0.0,2.0,55,0.00,,,0.00,Wunderground v.1.13,2013-10-27 07:00:00,
2013-10-27 03:10:00,51.6,35.0,30.07,WNW,283,0.0,2.0,53,0.00,,,0.00,Wunderground v.1.13,2013-10-27 07:10:00,
2013-10-27 03:20:00,51.6,37.3,30.07,WNW,283,0.0,2.0,58,0.00,,,0.00,Wunderground v.1.13,2013-10-27 07:20:00,
2013-10-27 03:30:00,51.5,35.4,30.07,WNW,283,0.0,2.0,54,0.00,,,0.00,Wunderground v.1.13,2013-10-27 07:30:00,
2013-10-27 03:40:00,51.3,35.2,30.07,WNW,283,0.0,2.0,54,0.00,,,0.00,Wunderground v.1.13,2013-10-27 07:40:00,
2013-10-27 03:50:00,51.3,35.7,30.07,WNW,283,0.0,2.0,55,0.00,,,0.00,Wunderground v.1.13,2013-10-27 07:50:00,
2013-10-27 04:00:00,51.3,35.7,30.06,WNW,283,0.0,2.0,55,0.00,,,0.00,Wunderground v.1.13,2013-10-27 08:00:00,
2013-10-27 04:10:00,51.3,36.6,30.06,WNW,283,0.0,2.0,57,0.00,,,0.00,Wunderground v.1.13,2013-10-27 08:10:00,
2013-10-27 04:20:00,51.2,36.5,30.06,WNW,283,0.0,2.0,57,0.00,,,0.00,Wunderground v.1.13,2013-10-27 08:20:00,
2013-10-27 04:30:00,51.0,36.3,30.06,WNW,283,0.0,2.0,57,0.00,,,0.00,Wunderground v.1.13,2013-10-27 08:30:00,
2013-10-27 04:40:00,51.0,37.2,30.06,WNW,283,0.0,2.0,59,0.00,,,0.00,Wunderground v.1.13,2013-10-27 08:40:00,
2013-10-27 04:50:00,51.0,38.0,30.06,WNW,283,0.0,2.0,61,0.00,,,0.00,Wunderground v.1.13,2013-10-27 08:50:00,
2013-10-27 05:00:00,50.9,37.5,30.06,WNW,283,0.0,2.0,60,0.00,,,0.00,Wunderground v.1.13,2013-10-27 09:00:00,
2013-10-27 05:10:00,50.7,37.7,30.06,WNW,283,0.0,2.0,61,0.00,,,0.00,Wunderground v.1.13,2013-10-27 09:10:00,
2013-10-27 05:20:00,50.7,37.7,30.06,WNW,283,0.0,2.0,61,0.00,,,0.00,Wunderground v.1.13,2013-10-27 09:20:00,
2013-10-27 05:30:00,50.7,37.7,30.06,WNW,283,0.0,2.0,61,0.00,,,0.00,Wunderground v.1.13,2013-10-27 09:30:00,
2013-10-27 05:40:00,50.7,38.6,30.07,WNW,283,0.0,2.0,63,0.00,,,0.00,Wunderground v.1.13,2013-10-27 09:40:00,
2013-10-27 05:50:00,50.7,39.0,30.07,WNW,283,0.0,2.0,64,0.00,,,0.00,Wunderground v.1.13,2013-10-27 09:50:00,
2013-10-27 06:00:00,50.7,39.0,30.07,WNW,283,0.0,2.0,64,0.00,,,0.00,Wunderground v.1.13,2013-10-27 10:00:00,
2013-10-27 06:10:00,50.7,39.0,30.07,WNW,283,0.0,2.0,64,0.00,,,0.00,Wunderground v.1.13,2013-10-27 10:10:00,
2013-10-27 06:20:00,50.7,39.7,30.07,WNW,283,0.0,2.0,66,0.00,,,0.00,Wunderground v.1.13,2013-10-27 10:20:00,
2013-10-27 06:30:00,50.9,39.5,30.07,WNW,283,0.0,2.0,65,0.00,,,0.00,Wunderground v.1.13,2013-10-27 10:30:00,
2013-10-27 06:40:00,51.0,39.2,30.07,WNW,283,0.0,2.0,64,0.00,,,0.00,Wunderground v.1.13,2013-10-27 10:40:00,
2013-10-27 06:50:00,51.2,39.0,30.07,WNW,283,0.0,2.0,63,0.00,,,0.00,Wunderground v.1.13,2013-10-27 10:50:00,
2013-10-27 07:00:00,51.2,39.8,30.07,WNW,283,0.0,2.0,65,0.00,,,0.00,Wunderground v.1.13,2013-10-27 11:00:00,
2013-10-27 07:10:00,51.2,39.4,30.08,WNW,283,0.0,2.0,64,0.00,,,0.00,Wunderground v.1.13,2013-10-27 11:10:00,
2013-10-27 07:20:00,51.3,41.8,30.08,WNW,283,0.0,2.0,70,0.00,,,0.00,Wunderground v.1.13,2013-10-27 11:20:00,
2013-10-27 07:30:00,51.2,40.2,30.08,WNW,283,0.0,2.0,66,0.00,,,0.00,Wunderground v.1.13,2013-10-27 11:30:00,
2013-10-27 07:40:00,51.0,40.4,30.08,WNW,283,0.0,2.0,67,0.00,,,0.00,Wunderground v.1.13,2013-10-27 11:40:00,
2013-10-27 07:50:00,51.0,41.6,30.08,WNW,283,0.0,2.0,70,0.00,,,0.00,Wunderground v.1.13,2013-10-27 11:50:00,
2013-10-27 08:00:00,50.9,40.3,30.08,WNW,283,0.0,2.0,67,0.00,,,0.00,Wunderground v.1.13,2013-10-27 12:00:00,
2013-10-27 08:10:00,50.7,40.9,30.08,WNW,283,0.0,2.0,69,0.00,,,0.00,Wunderground v.1.13,2013-10-27 12:10:00,
2013-10-27 08:20:00,50.7,41.6,30.08,WNW,283,0.0,2.0,71,0.00,,,0.00,Wunderground v.1.13,2013-10-27 12:20:00,
2013-10-27 08:30:00,50.9,42.6,30.09,WNW,283,0.0,2.0,73,0.00,,,0.00,Wunderground v.1.13,2013-10-27 12:30:00,
2013-10-27 08:40:00,50.7,40.9,30.09,WNW,283,0.0,2.0,69,0.00,,,0.00,Wunderground v.1.13,2013-10-27 12:40:00,
2013-10-27 08:50:00,50.9,42.2,30.09,WNW,283,0.0,2.0,72,0.00,,,0.00,Wunderground v.1.13,2013-10-27 12:50:00,
2013-10-27 09:00:00,51.3,42.6,30.09,WNW,283,0.0,2.0,72,0.00,,,0.00,Wunderground v.1.13,2013-10-27 13:00:00,
2013-10-27 09:10:00,51.8,42.7,30.09,WNW,283,0.0,2.0,71,0.00,,,0.00,Wunderground v.1.13,2013-10-27 13:10:00,
2013-10-27 09:20:00,52.2,42.0,30.09,WNW,283,0.0,2.0,68,0.00,,,0.00,Wunderground v.1.13,2013-10-27 13:20:00,
2013-10-27 09:30:00,52.8,41.0,30.09,WNW,283,0.0,2.0,64,0.00,,,0.00,Wunderground v.1.13,2013-10-27 13:30:00,
2013-10-27 09:40:00,53.2,40.1,30.11,WNW,283,0.0,2.0,61,0.00,,,0.00,Wunderground v.1.13,2013-10-27 13:40:00,
2013-10-27 09:50:00,53.5,39.5,30.11,WSW,258,0.0,2.0,59,0.00,,,0.00,Wunderground v.1.13,2013-10-27 13:50:00,
2013-10-27 10:00:00,53.7,39.7,30.11,WSW,248,0.0,2.0,59,0.00,,,0.00,Wunderground v.1.13,2013-10-27 14:00:00,
2013-10-27 10:10:00,53.8,39.8,30.11,WSW,251,0.0,2.0,59,0.00,,,0.00,Wunderground v.1.13,2013-10-27 14:10:00,
2013-10-27 10:20:00,54.3,40.3,30.11,WSW,251,0.0,2.0,59,0.00,,,0.00,Wunderground v.1.13,2013-10-27 14:20:00,
2013-10-27 10:30:00,54.6,41.8,30.11,WSW,251,0.0,2.0,62,0.00,,,0.00,Wunderground v.1.13,2013-10-27 14:30:00,
2013-10-27 10:40:00,54.9,40.4,30.11,WSW,251,0.0,2.0,58,0.00,,,0.00,Wunderground v.1.13,2013-10-27 14:40:00,
2013-10-27 10:50:00,55.2,40.7,30.11,WSW,251,0.0,2.0,58,0.00,,,0.00,Wunderground v.1.13,2013-10-27 14:50:00,
2013-10-27 11:00:00,55.5,41.8,30.10,WSW,251,0.0,2.0,60,0.00,,,0.00,Wunderground v.1.13,2013-10-27 15:00:00,
2013-10-27 11:10:00,55.9,41.8,30.11,WSW,251,0.0,2.0,59,0.00,,,0.00,Wunderground v.1.13,2013-10-27 15:10:00,
2013-10-27 11:20:00,56.4,41.8,30.11,WSW,251,0.0,2.0,58,0.00,,,0.00,Wunderground v.1.13,2013-10-27 15:20:00,
2013-10-27 11:30:00,56.6,41.1,30.10,WSW,251,0.0,2.0,56,0.00,,,0.00,Wunderground v.1.13,2013-10-27 15:30:00,
2013-10-27 11:40:00,56.5,41.4,30.11,WSW,251,0.0,2.0,57,0.00,,,0.00,Wunderground v.1.13,2013-10-27 15:40:00,
2013-10-27 11:50:00,56.9,41.8,30.11,WSW,251,0.0,2.0,57,0.00,,,0.00,Wunderground v.1.13,2013-10-27 15:50:00,
2013-10-27 12:00:00,57.1,41.5,30.11,WSW,251,0.0,2.0,56,0.00,,,0.00,Wunderground v.1.13,2013-10-27 16:00:00,
2013-10-27 12:10:00,57.9,41.3,30.10,WNW,292,0.0,2.0,54,0.00,,,0.00,Wunderground v.1.13,2013-10-27 16:10:00,
2013-10-27 12:20:00,58.9,41.8,30.10,NW,318,0.0,2.0,53,0.00,,,0.00,Wunderground v.1.13,2013-10-27 16:20:00,
2013-10-27 12:30:00,59.5,41.3,30.10,NW,318,0.0,2.0,51,0.00,,,0.00,Wunderground v.1.13,2013-10-27 16:30:00,
2013-10-27 12:40:00,59.7,42.0,30.10,NW,321,0.0,2.0,52,0.00,,,0.00,Wunderground v.1.13,2013-10-27 16:40:00,
2013-10-27 12:50:00,59.5,41.9,30.10,NW,309,0.0,2.0,52,0.00,,,0.00,Wunderground v.1.13,2013-10-27 16:50:00,
2013-10-27 13:00:00,61.1,43.3,30.09,NW,309,0.0,2.0,52,0.00,,,0.00,Wunderground v.1.13,2013-10-27 17:00:00,
2013-10-27 13:10:00,61.9,42.5,30.09,South,171,0.0,2.0,49,0.00,,,0.00,Wunderground v.1.13,2013-10-27 17:10:00,
2013-10-27 13:20:00,62.0,42.6,30.09,WSW,251,0.0,2.0,49,0.00,,,0.00,Wunderground v.1.13,2013-10-27 17:20:00,
2013-10-27 13:30:00,62.5,43.1,30.08,WSW,237,0.0,2.0,49,0.00,,,0.00,Wunderground v.1.13,2013-10-27 17:30:00,
2013-10-27 13:40:00,63.3,46.4,30.05,WNW,293,0.0,4.0,54,0.00,,,0.00,Wunderground v.1.13,2013-10-27 17:40:00,
2013-10-27 13:50:00,63.0,46.1,30.05,WNW,293,0.0,4.0,54,0.00,,,0.00,Wunderground v.1.13,2013-10-27 17:50:00,
2013-10-27 14:00:00,63.0,46.1,30.05,WNW,293,0.0,4.0,54,0.00,,,0.00,Wunderground v.1.13,2013-10-27 18:00:00,
2013-10-27 14:10:00,63.0,46.1,30.05,WNW,293,0.0,4.0,54,0.00,,,0.00,Wunderground v.1.13,2013-10-27 18:10:00,
2013-10-27 14:20:00,62.2,46.3,30.05,NW,315,0.0,3.0,56,0.00,,,0.00,Wunderground v.1.13,2013-10-27 18:20:00,
2013-10-27 14:30:00,62.2,46.3,30.05,NW,315,0.0,3.0,56,0.00,,,0.00,Wunderground v.1.13,2013-10-27 18:30:00,
2013-10-27 14:40:00,62.2,46.3,30.05,NW,315,0.0,3.0,56,0.00,,,0.00,Wunderground v.1.13,2013-10-27 18:40:00,
2013-10-27 14:50:00,62.3,47.3,30.05,SW,225,0.0,3.0,58,0.00,,,0.00,Wunderground v.1.13,2013-10-27 18:50:00,
2013-10-27 15:00:00,62.3,47.3,30.05,SW,225,0.0,3.0,58,0.00,,,0.00,Wunderground v.1.13,2013-10-27 19:00:00,
2013-10-27 15:10:00,62.3,47.3,30.05,SW,225,0.0,3.0,58,0.00,,,0.00,Wunderground v.1.13,2013-10-27 19:10:00,
2013-10-27 15:20:00,62.0,47.0,30.05,West,270,0.0,4.0,58,0.00,,,0.00,Wunderground v.1.13,2013-10-27 19:20:00,
2013-10-27 15:30:00,62.0,47.0,30.05,West,270,0.0,4.0,58,0.00,,,0.00,Wunderground v.1.13,2013-10-27 19:30:00,
2013-10-27 15:40:00,62.0,47.0,30.05,West,270,0.0,4.0,58,0.00,,,0.00,Wunderground v.1.13,2013-10-27 19:40:00,
2013-10-27 15:50:00,61.4,46.9,30.05,WSW,248,0.0,1.0,59,0.00,,,0.00,Wunderground v.1.13,2013-10-27 19:50:00,
2013-10-27 16:00:00,61.4,46.9,30.05,WSW,248,0.0,1.0,59,0.00,,,0.00,Wunderground v.1.13,2013-10-27 20:00:00,
2013-10-27 16:10:00,61.4,46.9,30.05,WSW,248,0.0,1.0,59,0.00,,,0.00,Wunderground v.1.13,2013-10-27 20:10:00,
2013-10-27 16:20:00,61.1,48.8,30.05,WSW,248,0.0,1.0,64,0.00,,,0.00,Wunderground v.1.13,2013-10-27 20:20:00,
2013-10-27 16:30:00,61.1,48.8,30.05,WSW,248,0.0,1.0,64,0.00,,,0.00,Wunderground v.1.13,2013-10-27 20:30:00,
2013-10-27 16:40:00,61.1,48.8,30.05,WSW,248,0.0,1.0,64,0.00,,,0.00,Wunderground v.1.13,2013-10-27 20:40:00,
2013-10-27 16:50:00,60.6,48.4,30.05,WNW,293,0.0,2.0,64,0.00,,,0.00,Wunderground v.1.13,2013-10-27 20:50:00,
2013-10-27 17:00:00,60.6,48.4,30.05,WNW,293,0.0,2.0,64,0.00,,,0.00,Wunderground v.1.13,2013-10-27 21:00:00,
2013-10-27 17:10:00,60.6,48.4,30.05,WNW,293,0.0,2.0,64,0.00,,,0.00,Wunderground v.1.13,2013-10-27 21:10:00,
2013-10-27 17:20:00,59.8,48.4,30.05,WNW,293,0.0,1.0,66,0.00,,,0.00,Wunderground v.1.13,2013-10-27 21:20:00,
2013-10-27 17:30:00,59.8,48.4,30.05,WNW,293,0.0,1.0,66,0.00,,,0.00,Wunderground v.1.13,2013-10-27 21:30:00,
2013-10-27 17:40:00,59.8,48.4,30.05,WNW,293,0.0,1.0,66,0.00,,,0.00,Wunderground v.1.13,2013-10-27 21:40:00,
2013-10-27 17:50:00,58.9,48.4,30.06,N/A,-737280,0.0,0.0,68,0.00,,,0.00,Wunderground v.1.13,2013-10-27 21:50:00,
2013-10-27 18:00:00,58.9,48.4,30.06,N/A,-737280,0.0,0.0,68,0.00,,,0.00,Wunderground v.1.13,2013-10-27 22:00:00,
2013-10-27 18:10:00,58.9,48.4,30.06,N/A,-737280,0.0,0.0,68,0.00,,,0.00,Wunderground v.1.13,2013-10-27 22:10:00,
2013-10-27 18:20:00,58.8,47.9,30.06,WNW,293,0.0,1.0,67,0.00,,,0.00,Wunderground v.1.13,2013-10-27 22:20:00,
2013-10-27 18:30:00,58.8,47.9,30.06,WNW,293,0.0,1.0,67,0.00,,,0.00,Wunderground v.1.13,2013-10-27 22:30:00,
2013-10-27 18:40:00,58.8,47.9,30.06,WNW,293,0.0,1.0,67,0.00,,,0.00,Wunderground v.1.13,2013-10-27 22:40:00,
2013-10-27 18:50:00,58.8,47.9,30.07,WNW,293,0.0,1.0,67,0.00,,,0.00,Wunderground v.1.13,2013-10-27 22:50:00,
2013-10-27 19:00:00,58.8,47.9,30.07,WNW,293,0.0,1.0,67,0.00,,,0.00,Wunderground v.1.13,2013-10-27 23:00:00,
2013-10-27 19:10:00,58.8,47.9,30.07,WNW,293,0.0,1.0,67,0.00,,,0.00,Wunderground v.1.13,2013-10-27 23:10:00,
2013-10-27 19:20:00,58.6,48.1,30.07,N/A,-737280,0.0,0.0,68,0.00,,,0.00,Wunderground v.1.13,2013-10-27 23:20:00,
2013-10-27 19:30:00,58.6,48.1,30.07,N/A,-737280,0.0,0.0,68,0.00,,,0.00,Wunderground v.1.13,2013-10-27 23:30:00,
2013-10-27 19:40:00,58.6,48.1,30.07,N/A,-737280,0.0,0.0,68,0.00,,,0.00,Wunderground v.1.13,2013-10-27 23:40:00,
2013-10-27 19:50:00,58.2,49.2,30.08,N/A,-737280,0.0,0.0,72,0.00,,,0.00,Wunderground v.1.13,2013-10-27 23:50:00,
2013-10-27 20:00:00,58.2,49.2,30.08,N/A,-737280,0.0,0.0,72,0.00,,,0.00,Wunderground v.1.13,2013-10-28 00:00:00,
2013-10-27 20:10:00,58.2,49.2,30.08,N/A,-737280,0.0,0.0,72,0.00,,,0.00,Wunderground v.1.13,2013-10-28 00:10:00,
2013-10-27 20:20:00,57.5,48.5,30.09,N/A,-737280,0.0,0.0,72,0.00,,,0.00,Wunderground v.1.13,2013-10-28 00:20:00,
2013-10-27 20:30:00,57.5,48.5,30.09,N/A,-737280,0.0,0.0,72,0.00,,,0.00,Wunderground v.1.13,2013-10-28 00:30:00,
2013-10-27 20:40:00,57.5,48.5,30.09,N/A,-737280,0.0,0.0,72,0.00,,,0.00,Wunderground v.1.13,2013-10-28 00:40:00,
2013-10-27 20:50:00,57.2,49.3,30.10,N/A,-737280,0.0,0.0,75,0.00,,,0.00,Wunderground v.1.13,2013-10-28 00:50:00,
2013-10-27 21:00:00,57.2,49.3,30.10,N/A,-737280,0.0,0.0,75,0.00,,,0.00,Wunderground v.1.13,2013-10-28 01:00:00,
2013-10-27 21:10:00,57.2,49.3,30.10,N/A,-737280,0.0,0.0,75,0.00,,,0.00,Wunderground v.1.13,2013-10-28 01:10:00,
2013-10-27 21:20:00,56.6,49.5,30.09,N/A,-737280,0.0,0.0,77,0.00,,,0.00,Wunderground v.1.13,2013-10-28 01:20:00,
2013-10-27 21:30:00,56.6,49.5,30.09,N/A,-737280,0.0,0.0,77,0.00,,,0.00,Wunderground v.1.13,2013-10-28 01:30:00,
2013-10-27 21:40:00,56.6,49.5,30.09,N/A,-737280,0.0,0.0,77,0.00,,,0.00,Wunderground v.1.13,2013-10-28 01:40:00,
2013-10-27 21:50:00,56.6,49.8,30.10,N/A,-737280,0.0,0.0,78,0.00,,,0.00,Wunderground v.1.13,2013-10-28 01:50:00,
2013-10-27 22:00:00,56.6,49.8,30.10,N/A,-737280,0.0,0.0,78,0.00,,,0.00,Wunderground v.1.13,2013-10-28 02:00:00,
2013-10-27 22:10:00,56.6,49.8,30.10,N/A,-737280,0.0,0.0,78,0.00,,,0.00,Wunderground v.1.13,2013-10-28 02:10:00,
2013-10-27 22:20:00,56.6,50.5,30.10,N/A,-737280,0.0,0.0,80,0.00,,,0.00,Wunderground v.1.13,2013-10-28 02:20:00,
2013-10-27 22:30:00,56.6,50.5,30.10,N/A,-737280,0.0,0.0,80,0.00,,,0.00,Wunderground v.1.13,2013-10-28 02:30:00,
2013-10-27 22:40:00,56.6,50.5,30.10,N/A,-737280,0.0,0.0,80,0.00,,,0.00,Wunderground v.1.13,2013-10-28 02:40:00,
2013-10-27 22:50:00,56.1,50.7,30.10,N/A,-737280,0.0,0.0,82,0.00,,,0.00,Wunderground v.1.13,2013-10-28 02:50:00,
2013-10-27 23:00:00,56.1,50.7,30.10,N/A,-737280,0.0,0.0,82,0.00,,,0.00,Wunderground v.1.13,2013-10-28 03:00:00,
2013-10-27 23:10:00,56.1,50.7,30.10,N/A,-737280,0.0,0.0,82,0.00,,,0.00,Wunderground v.1.13,2013-10-28 03:10:00,
2013-10-27 23:20:00,55.3,50.9,30.10,N/A,-737280,0.0,0.0,85,0.00,,,0.00,Wunderground v.1.13,2013-10-28 03:20:00,
2013-10-27 23:30:00,55.3,50.9,30.10,N/A,-737280,0.0,0.0,85,0.00,,,0.00,Wunderground v.1.13,2013-10-28 03:30:00,
2013-10-27 23:40:00,55.3,50.9,30.10,N/A,-737280,0.0,0.0,85,0.00,,,0.00,Wunderground v.1.13,2013-10-28 03:40:00,
2013-10-27 23:50:00,54.3,49.9,30.09,N/A,-737280,0.0,0.0,85,0.00,,,0.00,Wunderground v.1.13,2013-10-28 03:50:00,